CZ-6A DEB

Satellite information

Favourite Embed

Satellite Type and Status

DEBRISIN ORBIT

Key statistics

Satellite CZ-6A DEB at a glance.

Uptime

449

Days in orbit

Revolutions

≈ 14.6

Per day

Orbit

LEO

Low Earth Orbit

Inclination

89.1

Latest

Satellite identification and parameters

Extended collection of information and parameters for CZ-6A DEB.

Object identification

Identified? True

Debris? True

Object name: CZ-6A DEB

International designator: 2024-140AZ

Object number (NORAD): 60648

Object ID (CCSDS): 60648

Country: PEOPLES REPUBLIC OF CHINA (PRC)

Current information (Y/N): Y

RCS size: MEDIUM

Orbital parameters

Period: 98.601 minutes

Inclination: 89.0814 deg

SMA: 7069.934 km

Apoapsis: 782.977 km

Periapsis: 600.622 km

RAAN: 302.2034 deg

Eccentricy: 0.01289651

Argument of periapsis: 315.3321 deg

Mean anomaly: 43.7557 deg

Mean motion: 14.6042653 rev/day

Mean motion (dot): 0.00003909 rev/day2

B* drag term: 0.00071480979 1/REarth

Two-line elements (TLE)

Creation date: Oct. 28, 2025, 7:11 p.m.

Reference frame: TEME

Reference center: EARTH

Epoch: Oct. 28, 2025, 12:23 p.m. UTC

TLE line 0: 0 CZ-6A DEB

TLE line 1: 1 60648U 24140AZ 25301.51609102 .00003909 00000-0 71481-3 0 9995

TLE line 2: 2 60648 89.0814 302.2034 0128965 315.3321 43.7557 14.60426530 65035

Live tracking on map

Real-time ground track for satellite CZ-6A DEB.

In-orbit conjunctions

A list of the most updated potential collisions computed for object CZ-6A DEB.

Target Orbit TCA Probability of collision Miss distance Type
CZ-4B DEB SSO 2025-07-17 15:55:19 0.0003548214 202.0 (m) DEBRIS
SL-8 R/B LEO 2025-05-06 01:43:57 0.0003605683 165.0 (m) ROCKET BODY
FENGYUN 1C DEB SSO 2024-11-15 11:25:01 0.000202025 178.0 (m) DEBRIS
COSMOS 2251 DEB LEO 2024-11-07 14:03:19 0.0001275344 265.0 (m) DEBRIS

Associated space launch

18 Low Earth Orbit communication satellites with Ku, Q and V band payloads for the G60 constellation operated by Shanghai Spacecom Satellite Technology (SSST) with funding backed by the Shanghai local government. Initial constellation will consist of 1296 satellites by 2027 with long term plans to expand it to 12000 satellites.

CZ-6A DEB was lifted into orbit during the mission ‘Long March 6A | G60 Polar Group 01’, on board a Long March 6A space rocket.

The launch took place on Aug. 6, 2024, 6:42 a.m. from Launch Complex 9A.

For more information about the launch, click the button.

Launch to space Long March 6A | G60 Polar Group 01
Long March 6A | G60 Polar Group 01

Agency: N/A

Status: Launch Successful

Launch date: Aug. 6, 2024, 6:42 a.m. UTC

Rocket: Long March 6A

Launch pad: Launch Complex 9A

Location: Taiyuan Satellite Launch Center, People's Republic of China

...

Latest news about this satellite

News about space launch
Brightness of first Chinese broadband constellation satellites alarms astronomers

The first satellites of a Chinese broadband constellation are significantly brighter than those of Western systems, posing a new challenge for astronomers.

News about space launch
Chinese rocket stage breaks up into cloud of more than 700 pieces of space debris

HELSINKI — A Chinese Long March 6A rocket’s upper stage has fragmented into a cloud of over 700 pieces of space debris, adding to concerns about long-term orbital safety. China […]

News about space launch
China's Thousand Sails Megaconstellation Kicks Off with Dangerous Debris Field

China's Thousand Sails Megaconstellation Kicks Off with Dangerous Debris Field


Newsletter sign-up

Weekly statistics, charts and insights to help you stay on top of the space industry.